This is the latest recevied weather packets stored in our database for station/object KI7MOQ. If no packets are shown the sender has not sent any weather packets the latest 1 day(s).
| Time | Temp. | Humidity | Pressure | Rain* | Wind** | Luminosity | Snow |
|---|---|---|---|---|---|---|---|
| 1778014051 | 16.11° C | 77% | 1019.1 hPa | 0 mm | 0 m/s | 130 W/m² | - |
| 1778013749 | 16.11° C | 76% | 1019 hPa | 0 mm | 0.45 m/s, 93° | 145 W/m² | - |
| 1778013446 | 16.11° C | 77% | 1019.2 hPa | 0 mm | 0.45 m/s, 121° | 171 W/m² | - |
| 1778013143 | 15.56° C | 78% | 1019.1 hPa | 0 mm | 0.45 m/s, 97° | 177 W/m² | - |
| 1778012839 | 15.56° C | 79% | 1019.1 hPa | 0 mm | 0.45 m/s, 95° | 120 W/m² | - |
| 1778012535 | 15.56° C | 78% | 1019.3 hPa | 0 mm | 0 m/s | 74 W/m² | - |
| 1778012232 | 15.56° C | 79% | 1019.1 hPa | 0 mm | 0 m/s | 54 W/m² | - |
| 1778011930 | 15.56° C | 79% | 1019.3 hPa | 0 mm | 0 m/s | 44 W/m² | - |
| 1778011628 | 15.56° C | 79% | 1019.2 hPa | 0 mm | 0 m/s | 52 W/m² | - |
| 1778011324 | 15° C | 80% | 1019.2 hPa | 0 mm | 0.89 m/s, 97° | 61 W/m² | - |
| 1778011020 | 15° C | 79% | 1019.1 hPa | 0 mm | 0.45 m/s, 96° | 78 W/m² | - |
| 1778010717 | 15.56° C | 79% | 1019.2 hPa | 0 mm | 0.89 m/s, 78° | 61 W/m² | - |
| 1778010415 | 15.56° C | 78% | 1019.2 hPa | 0 mm | 0.45 m/s, 79° | 56 W/m² | - |
| 1778010111 | 16.11° C | 78% | 1019.4 hPa | 0 mm | 0 m/s | 56 W/m² | - |
| 1778009807 | 15.56° C | 77% | 1019.3 hPa | 0 mm | 0 m/s | 66 W/m² | - |
| 1778009504 | 15.56° C | 78% | 1019.2 hPa | 0 mm | 0 m/s | 69 W/m² | - |
| 1778009203 | 15.56° C | 77% | 1019.3 hPa | 0 mm | 0 m/s | 60 W/m² | - |
| 1778008900 | 15.56° C | 77% | 1019.1 hPa | 0 mm | 0 m/s | 59 W/m² | - |
| 1778008599 | 15.56° C | 77% | 1019.2 hPa | 0 mm | 0 m/s | 67 W/m² | - |
| 1778008297 | 15.56° C | 76% | 1019.3 hPa | 0 mm | 0 m/s | 76 W/m² | - |
| 1778007992 | 15.56° C | 77% | 1019.2 hPa | 0 mm | 0 m/s | 92 W/m² | - |
| 1778007687 | 15.56° C | 77% | 1019.1 hPa | 0 mm | 0 m/s | 88 W/m² | - |
| 1778007385 | 15.56° C | 78% | 1019.3 hPa | 0 mm | 0 m/s | 89 W/m² | - |
| 1778007081 | 15° C | 79% | 1019.2 hPa | 0 mm | 0 m/s | 86 W/m² | - |
| 1778006777 | 15° C | 79% | 1019.2 hPa | 0 mm | 0 m/s | 75 W/m² | - |
* Rain latest hour (hover to see other rain measurements)
** Current wind speed in m/s (hover to see current wind gust speed)